Location: Unspecified
(0.0000°N, 0.0000°E)
Time: 04:24:36
(UTC+00:00)

A-11 Canister half - Pass Details

Date: 17 April 2026
Orbit: 1523 x 1685 km, 47.3° (Epoch: 13 May)

Event Time Altitude Azimuth Distance (km) Brightness Sun altitude
Rises 10:39:51 0° 300° (WNW) 4,818 11.5 67.5°
Reaches altitude 10° 10:43:21 10° 292° (WNW) 3,810 11.1 68.3°
Maximum altitude 10:51:51 35° 230° (SW) 2,318 10.2 70.1°
Drops below altitude 10° 11:00:11 10° 167° (SSE) 3,714 11.1 71.8°
Sets 11:03:35 0° 158° (SSE) 4,685 11.5 72.5°
